CZ-6A DEB, 61477

Orbit data source: Space-Track

CZ-6A DEB, 61477 is space debris in LEO originally from a launch on Tue, 06 Aug 2024 UTC launched from the Taiyaun Space Center, China (TSC). Debris objects in space refer to the collection of defunct objects orbiting the Earth. Examples of debris include non-operational satellites, rocket bodies, and fragments generated from explosions, collisions, or faulty payload assembly.

Loading next visibility...
Identifier
61477, 2024-140AAK
Orbit
LEO
Last TLE update
15 hours ago
Origin
Manufacturer
SAST
Mission
Spacecraft
Bus & Motor
Unknown
Mass
Unknown
Launch date (UTC)
2024-08-06 (11 months ago)
Launch vehicle
Unknown
Launch site
Taiyaun Space Center, China (TSC)
Object type
Payload
Rocket body
Debris
Shape & HBR
Unknown
Radar Cross Section
Small (<0.1 m²)

Expand to show TLE details & history

TLE from 15 hours ago
0 CZ-6A DEB
1 61477U 24140AAK 25190.05367356  .00002723  00000-0  55066-3 0  9997
2 61477  89.0468 312.8728 0103360   1.5916 358.5603 14.57739940 44780
Epoch: 2025-07-09T01:17Z
TLE epoch observation values (Epoch: 2025-07-09T01:17:17.395Z)
Latitude
-0.00001°
Longitude
6.3105°
Altitude
630.431 km
Speed
7.582 km/s
True Right ascension
20h 51m 29s
True Declination
0° 00' 00"
Sunlit
Object was in full shadow at epoch
Visualization orbit readout
Latitude
24.81251°
Longitude
6.67731°
Altitude
637.383 km
Speed
7.577 km/s
Apparent Right ascension
18h 58m 32s
Apparent Declination
-6° 54' 51"
Sunlit
Object is in full shadow
Visualization observer readout
Local Sidereal Time
04:24:29
Azimuth
303.303° NW
Elevation
-42.301°
Doppler factor
1
Orbital elements
Apogee altitude
770.51 km
Perigee altitude
624.245 km
Semi-major axis
7,075.515 km
Eccentricity
0.01034
Inclination
89.0468°
RAAN
312.8728°
Arg. of periapsis
1.5916°
True anomaly
Unknown
Mean anomaly
358.5603°
Eccentric anomaly
Unknown
Mean motion
3.64675 °/min
Orbital period
98.72 mins
BSTAR
0.00055066
Loading maneuver chart data...
Loading SW <> Apogee altitude chart data...
Loading historical data...
Loading historical data...
Loading historical data...
Loading historical data...
Loading historical data...
Loading historical data...
Loading historical data...

CZ-6A DEB Visibility forecast

Observer location: undefined°, undefined°

Span
Click to sort rows by Start time (UTC) header in descending order
Start Az.
Max El. time (UTC)
Max El. Az.
Max El.
End time (UTC)
End Az.
9 mins2025-07-09 19:58:32.900Z18.059° NNE2025-07-09 20:02:32.900Z78.269° E33.477°2025-07-09 20:07:32.900Z156.892° SSE
5 mins2025-07-09 21:39:32.900Z308.721° NW2025-07-09 21:41:32.900Z277.464° WNW19.583°2025-07-09 21:44:32.900Z238.548° WSW
7 mins2025-07-10 08:43:32.900Z185.336° SSW2025-07-10 08:46:32.900Z326.304° NNW43.058°2025-07-10 08:50:32.900Z356.271° N
|